| time (UTC) | temp C | wind direction | speed KPH | gust KPH | rain 1hr cm | rain 24hr cm | rain mn cm | humidity % | barometer mb |
| 20260505025333 | 21 | 35 | 3.2 | 12.9 | 0.00 | 0.00 | 0.00 | 31 | 1004.1 |
| 20260505024801 | 21 | 37 | 6.4 | 11.3 | 0.00 | 0.00 | 0.00 | 31 | 1004.1 |
| 20260505024229 | 21 | 43 | 4.8 | 17.7 | 0.00 | 0.00 | 0.00 | 31 | 1003.7 |
| 20260505023657 | 22 | 45 | 4.8 | 17.7 | 0.00 | 0.00 | 0.00 | 29 | 1003.7 |
| 20260505023156 | 22 | 65 | 4.8 | 11.3 | 0.00 | 0.00 | 0.00 | 30 | 1003.7 |
| 20260505022655 | 22 | 60 | 4.8 | 17.7 | 0.00 | 0.00 | 0.00 | 30 | 1003.4 |
| 20260505022155 | 22 | 44 | 4.8 | 19.3 | 0.00 | 0.00 | 0.00 | 30 | 1003.0 |
| 20260505021654 | 22 | 54 | 8.0 | 19.3 | 0.00 | 0.00 | 0.00 | 28 | 1003.0 |
| 20260505021153 | 22 | 54 | 8.0 | 16.1 | 0.00 | 0.00 | 0.00 | 29 | 1002.7 |
| 20260505020653 | 22 | 59 | 6.4 | 16.1 | 0.00 | 0.00 | 0.00 | 29 | 1002.7 |
| 20260505020152 | 23 | 44 | 4.8 | 17.7 | 0.00 | 0.00 | 0.00 | 29 | 1002.4 |
| 20260505015652 | 23 | 37 | 9.7 | 17.7 | 0.00 | 0.00 | 0.00 | 31 | 1002.4 |
| 20260505015120 | 23 | 21 | 6.4 | 14.5 | 0.00 | 0.00 | 0.00 | 32 | 1002.4 |
| 20260505014619 | 23 | 28 | 8.0 | 14.5 | 0.00 | 0.00 | 0.00 | 32 | 1002.4 |
| 20260505014119 | 23 | 353 | 3.2 | 12.9 | 0.00 | 0.00 | 0.00 | 32 | 1002.0 |
| 20260505013618 | 23 | 5 | 4.8 | 12.9 | 0.00 | 0.00 | 0.00 | 33 | 1001.7 |
| 20260505013118 | 24 | 343 | 4.8 | 11.3 | 0.00 | 0.00 | 0.00 | 33 | 1001.7 |
| 20260505012617 | 24 | 15 | 4.8 | 19.3 | 0.00 | 0.00 | 0.00 | 33 | 1001.4 |
| 20260505012116 | 23 | 343 | 6.4 | 19.3 | 0.00 | 0.00 | 0.00 | 35 | 1001.4 |
| 20260505011514 | 23 | 273 | 1.6 | 1.6 | 0.00 | 0.00 | 0.00 | 50 | 1001.0 |
| 20260505011013 | 23 | 275 | 0.0 | 0.0 | 0.00 | 0.00 | 0.00 | 39 | 1000.7 |
| 20260505010411 | 23 | 275 | 0.0 | 0.0 | 0.00 | 0.00 | 0.00 | 36 | 1000.7 |
| 20260505005910 | 24 | 275 | 0.0 | 0.0 | 0.00 | 0.00 | 0.00 | 32 | 1000.7 |
| 20260505005409 | 24 | 275 | 0.0 | 0.0 | 0.00 | 0.00 | 0.00 | 34 | 1000.7 |
| 20260505004838 | 24 | 275 | 0.0 | 0.0 | 0.00 | 0.00 | 0.00 | 34 | 1000.7 |
| 20260505004337 | 25 | 275 | 0.0 | 0.0 | 0.00 | 0.00 | 0.00 | 32 | 1000.3 |
| 20260505003836 | 25 | 275 | 0.0 | 0.0 | 0.00 | 0.00 | 0.00 | 31 | 1000.3 |
| 20260505003336 | 25 | 275 | 0.0 | 0.0 | 0.00 | 0.00 | 0.00 | 30 | 1000.3 |
| 20260505002835 | 26 | 275 | 0.0 | 0.0 | 0.00 | 0.00 | 0.00 | 28 | 1000.3 |
| 20260505002201 | 26 | 275 | 0.0 | 1.6 | 0.00 | 0.00 | 0.00 | 28 | 1000.3 |
| 20260505001700 | 27 | 275 | 0.0 | 1.6 | 0.00 | 0.00 | 0.00 | 28 | 1000.0 |
| 20260505001159 | 27 | 275 | 0.0 | 1.6 | 0.00 | 0.00 | 0.00 | 28 | 1000.0 |
| 20260505000659 | 28 | 275 | 0.0 | 4.8 | 0.00 | 0.00 | 0.00 | 27 | 1000.0 |
| 20260505000127 | 28 | 279 | 1.6 | 6.4 | 0.00 | 0.00 | 0.00 | 25 | 1000.0 |
| 20260504235626 | 28 | 299 | 1.6 | 6.4 | 0.00 | 0.00 | 0.00 | 25 | 1000.3 |
| 20260504235126 | 27 | 279 | 1.6 | 1.6 | 0.00 | 0.00 | 0.00 | 24 | 1000.3 |
| 20260504234553 | 28 | 286 | 1.6 | 1.6 | 0.00 | 0.00 | 0.00 | 30 | 1000.0 |
| 20260504234053 | 28 | 286 | 0.0 | 0.0 | 0.00 | 0.00 | 0.00 | 25 | 1000.0 |
| 20260504233552 | 28 | 286 | 0.0 | 1.6 | 0.00 | 0.00 | 0.00 | 26 | 1000.0 |
| 20260504233051 | 28 | 286 | 0.0 | 1.6 | 0.00 | 0.00 | 0.00 | 25 | 1000.0 |
| 20260504232550 | 28 | 279 | 0.0 | 8.0 | 0.00 | 0.00 | 0.00 | 26 | 1000.3 |
| 20260504232050 | 28 | 280 | 1.6 | 8.0 | 0.00 | 0.00 | 0.00 | 20 | 1000.3 |
| 20260504231518 | 28 | 282 | 3.2 | 12.9 | 0.00 | 0.00 | 0.00 | 20 | 1000.3 |
| 20260504231018 | 28 | 278 | 8.0 | 12.9 | 0.00 | 0.00 | 0.00 | 19 | 1000.0 |
| 20260504230517 | 29 | 275 | 3.2 | 9.7 | 0.00 | 0.00 | 0.00 | 20 | 1000.0 |
| 20260504230017 | 29 | 289 | 4.8 | 9.7 | 0.00 | 0.00 | 0.00 | 17 | 1000.0 |
| 20260504225516 | 29 | 273 | 6.4 | 11.3 | 0.00 | 0.00 | 0.00 | 19 | 1000.0 |
| 20260504225015 | 29 | 304 | 4.8 | 16.1 | 0.00 | 0.00 | 0.00 | 17 | 1000.0 |
| 20260504224515 | 30 | 292 | 8.0 | 16.1 | 0.00 | 0.00 | 0.00 | 17 | 1000.0 |
| 20260504224014 | 30 | 327 | 4.8 | 19.3 | 0.00 | 0.00 | 0.00 | 21 | 1000.0 |
| 20260504223513 | 30 | 266 | 11.3 | 19.3 | 0.00 | 0.00 | 0.00 | 21 | 1000.0 |
| 20260504223013 | 30 | 299 | 4.8 | 12.9 | 0.00 | 0.00 | 0.00 | 20 | 1000.0 |
| 20260504222512 | 30 | 290 | 6.4 | 11.3 | 0.00 | 0.00 | 0.00 | 21 | 1000.0 |
| 20260504222012 | 29 | 272 | 4.8 | 11.3 | 0.00 | 0.00 | 0.00 | 21 | 1000.0 |
| 20260504221511 | 29 | 278 | 6.4 | 11.3 | 0.00 | 0.00 | 0.00 | 20 | 1000.0 |
| 20260504221011 | 29 | 275 | 6.4 | 14.5 | 0.00 | 0.00 | 0.00 | 23 | 1000.0 |
| 20260504220510 | 29 | 291 | 4.8 | 14.5 | 0.00 | 0.00 | 0.00 | 24 | 1000.0 |
| 20260504220009 | 29 | 241 | 8.0 | 12.9 | 0.00 | 0.00 | 0.00 | 23 | 1000.0 |
| 20260504215508 | 30 | 268 | 8.0 | 16.1 | 0.00 | 0.00 | 0.00 | 23 | 1000.0 |
| 20260504215008 | 30 | 288 | 9.7 | 20.9 | 0.00 | 0.00 | 0.00 | 23 | 1000.0 |
| 20260504214507 | 30 | 286 | 9.7 | 20.9 | 0.00 | 0.00 | 0.00 | 23 | 1000.0 |
| 20260504214007 | 30 | 292 | 12.9 | 16.1 | 0.00 | 0.00 | 0.00 | 26 | 1000.0 |
| 20260504213506 | 30 | 267 | 8.0 | 14.5 | 0.00 | 0.00 | 0.00 | 24 | 1000.0 |
| 20260504213005 | 30 | 278 | 3.2 | 16.1 | 0.00 | 0.00 | 0.00 | 25 | 1000.0 |
| 20260504212434 | 30 | 289 | 9.7 | 17.7 | 0.00 | 0.00 | 0.00 | 25 | 1000.0 |
| 20260504211933 | 30 | 312 | 6.4 | 17.7 | 0.00 | 0.00 | 0.00 | 27 | 1000.0 |
| 20260504211433 | 29 | 290 | 4.8 | 9.7 | 0.00 | 0.00 | 0.00 | 27 | 1000.0 |
| 20260504210901 | 29 | 256 | 3.2 | 12.9 | 0.00 | 0.00 | 0.00 | 27 | 1000.0 |
| 20260504210400 | 29 | 288 | 3.2 | 12.9 | 0.00 | 0.00 | 0.00 | 25 | 1000.0 |
| 20260504205900 | 29 | 300 | 1.6 | 16.1 | 0.00 | 0.00 | 0.00 | 28 | 1000.0 |
| 20260504205359 | 29 | 269 | 8.0 | 16.1 | 0.00 | 0.00 | 0.00 | 27 | 1000.0 |
| 20260504204859 | 29 | 287 | 4.8 | 12.9 | 0.00 | 0.00 | 0.00 | 26 | 1000.3 |
| 20260504204358 | 29 | 266 | 6.4 | 11.3 | 0.00 | 0.00 | 0.00 | 25 | 1000.3 |
| 20260504203857 | 29 | 8 | 3.2 | 11.3 | 0.00 | 0.00 | 0.00 | 28 | 1000.3 |
| 20260504203357 | 30 | 267 | 8.0 | 17.7 | 0.00 | 0.00 | 0.00 | 23 | 1000.3 |
| 20260504202856 | 30 | 269 | 11.3 | 17.7 | 0.00 | 0.00 | 0.00 | 24 | 1000.3 |
| 20260504202356 | 30 | 334 | 4.8 | 14.5 | 0.00 | 0.00 | 0.00 | 25 | 1000.3 |
| 20260504201855 | 30 | 274 | 8.0 | 14.5 | 0.00 | 0.00 | 0.00 | 24 | 1000.3 |
| 20260504201354 | 30 | 269 | 6.4 | 14.5 | 0.00 | 0.00 | 0.00 | 22 | 1000.7 |
| 20260504200853 | 29 | 281 | 4.8 | 16.1 | 0.00 | 0.00 | 0.00 | 27 | 1000.3 |
| 20260504200353 | 29 | 253 | 4.8 | 17.7 | 0.00 | 0.00 | 0.00 | 26 | 1000.7 |
| 20260504195852 | 29 | 245 | 9.7 | 17.7 | 0.00 | 0.00 | 0.00 | 24 | 1000.3 |
| 20260504195351 | 29 | 286 | 9.7 | 14.5 | 0.00 | 0.00 | 0.00 | 23 | 1000.3 |
| 20260504194850 | 29 | 286 | 3.2 | 12.9 | 0.00 | 0.00 | 0.00 | 26 | 1000.3 |
| 20260504194350 | 29 | 273 | 4.8 | 11.3 | 0.00 | 0.00 | 0.00 | 29 | 1000.3 |
| 20260504193849 | 29 | 276 | 4.8 | 11.3 | 0.00 | 0.00 | 0.00 | 29 | 1000.3 |
| 20260504193348 | 29 | 279 | 3.2 | 11.3 | 0.00 | 0.00 | 0.00 | 28 | 1000.7 |
| 20260504192848 | 29 | 256 | 4.8 | 16.1 | 0.00 | 0.00 | 0.00 | 30 | 1000.3 |
| 20260504192347 | 29 | 237 | 8.0 | 16.1 | 0.00 | 0.00 | 0.00 | 28 | 1000.3 |
| 20260504191816 | 29 | 246 | 8.0 | 16.1 | 0.00 | 0.00 | 0.00 | 27 | 1000.7 |
| 20260504191315 | 29 | 257 | 11.3 | 14.5 | 0.00 | 0.00 | 0.00 | 28 | 1000.7 |
| 20260504190814 | 29 | 258 | 6.4 | 12.9 | 0.00 | 0.00 | 0.00 | 29 | 1000.7 |
| 20260504190314 | 29 | 266 | 4.8 | 12.9 | 0.00 | 0.00 | 0.00 | 27 | 1000.7 |
| 20260504185813 | 29 | 240 | 6.4 | 14.5 | 0.00 | 0.00 | 0.00 | 31 | 1000.7 |
| 20260504185313 | 28 | 225 | 6.4 | 14.5 | 0.00 | 0.00 | 0.00 | 27 | 1000.7 |
| 20260504184812 | 28 | 285 | 6.4 | 22.5 | 0.00 | 0.00 | 0.00 | 30 | 1001.0 |
| 20260504184311 | 28 | 271 | 4.8 | 22.5 | 0.00 | 0.00 | 0.00 | 32 | 1000.7 |
| 20260504183740 | 28 | 222 | 6.4 | 16.1 | 0.00 | 0.00 | 0.00 | 35 | 1000.7 |
| 20260504183239 | 28 | 241 | 11.3 | 16.1 | 0.00 | 0.00 | 0.00 | 31 | 1001.0 |
| 20260504182738 | 28 | 280 | 1.6 | 19.3 | 0.00 | 0.00 | 0.00 | 34 | 1000.7 |
| 20260504182237 | 28 | 285 | 6.4 | 19.3 | 0.00 | 0.00 | 0.00 | 32 | 1001.0 |
| 20260504181737 | 28 | 254 | 8.0 | 14.5 | 0.00 | 0.00 | 0.00 | 33 | 1001.0 |
| 20260504181236 | 27 | 243 | 6.4 | 12.9 | 0.00 | 0.00 | 0.00 | 36 | 1001.0 |
| 20260504180736 | 27 | 246 | 8.0 | 12.9 | 0.00 | 0.00 | 0.00 | 35 | 1001.0 |
| 20260504180235 | 27 | 283 | 9.7 | 12.9 | 0.00 | 0.00 | 0.00 | 35 | 1001.0 |
| 20260504175735 | 27 | 249 | 8.0 | 12.9 | 0.00 | 0.00 | 0.00 | 35 | 1001.4 |
| 20260504175234 | 27 | 279 | 4.8 | 11.3 | 0.00 | 0.00 | 0.00 | 36 | 1001.4 |
| 20260504174733 | 27 | 219 | 4.8 | 16.1 | 0.00 | 0.00 | 0.00 | 37 | 1001.4 |
| 20260504174233 | 27 | 237 | 6.4 | 16.1 | 0.00 | 0.00 | 0.00 | 37 | 1001.4 |
| 20260504173732 | 27 | 244 | 6.4 | 14.5 | 0.00 | 0.00 | 0.00 | 36 | 1001.4 |
| 20260504173231 | 27 | 247 | 4.8 | 14.5 | 0.00 | 0.00 | 0.00 | 38 | 1001.4 |
| 20260504172731 | 26 | 237 | 4.8 | 17.7 | 0.00 | 0.00 | 0.00 | 39 | 1001.4 |
| 20260504172230 | 26 | 216 | 8.0 | 17.7 | 0.00 | 0.00 | 0.00 | 39 | 1001.4 |
| 20260504171730 | 26 | 234 | 8.0 | 17.7 | 0.00 | 0.00 | 0.00 | 39 | 1001.4 |
| 20260504171229 | 26 | 230 | 3.2 | 17.7 | 0.00 | 0.00 | 0.00 | 39 | 1001.7 |
| 20260504170728 | 26 | 243 | 3.2 | 12.9 | 0.00 | 0.00 | 0.00 | 38 | 1001.7 |
| 20260504170228 | 26 | 226 | 8.0 | 17.7 | 0.00 | 0.00 | 0.00 | 38 | 1001.7 |
| 20260504150908 | 22 | 245 | 8.0 | 22.5 | 0.00 | 0.00 | 0.00 | 47 | 1002.0 |
| 20260504150407 | 22 | 238 | 9.7 | 22.5 | 0.00 | 0.00 | 0.00 | 44 | 1002.0 |
| 20260504141330 | 21 | 255 | 8.0 | 14.5 | 0.00 | 0.00 | 0.00 | 47 | 1002.4 |
| 20260504140829 | 21 | 245 | 6.4 | 12.9 | 0.00 | 0.00 | 0.00 | 47 | 1002.4 |
| 20260504140329 | 21 | 230 | 8.0 | 12.9 | 0.00 | 0.00 | 0.00 | 48 | 1002.4 |
| 20260504130821 | 18 | 186 | 1.6 | 8.0 | 0.00 | 0.00 | 0.00 | 54 | 1002.7 |
| 20260504130321 | 18 | 231 | 1.6 | 8.0 | 0.00 | 0.00 | 0.00 | 55 | 1002.7 |
| 20260504120241 | 16 | 138 | 0.0 | 9.7 | 0.00 | 0.00 | 0.00 | 58 | 1002.4 |
| 20260504110235 | 15 | 235 | 3.2 | 6.4 | 0.00 | 0.00 | 0.00 | 61 | 1002.4 |
| 20260504100156 | 15 | 105 | 1.6 | 1.6 | 0.00 | 0.00 | 0.00 | 59 | 1003.0 |
| 20260504081806 | 17 | 194 | 1.6 | 1.6 | 0.00 | 0.00 | 0.00 | 52 | 1004.4 |
| 20260504081234 | 17 | 98 | 1.6 | 1.6 | 0.00 | 0.00 | 0.00 | 52 | 1004.4 |
| 20260504080734 | 17 | 106 | 1.6 | 1.6 | 0.00 | 0.00 | 0.00 | 51 | 1004.4 |
| 20260504080233 | 17 | 103 | 1.6 | 1.6 | 0.00 | 0.00 | 0.00 | 51 | 1004.7 |
| 20260504050404 | 16 | 106 | 1.6 | 1.6 | 0.00 | 0.00 | 0.00 | 53 | 1007.1 |
| 20260504045904 | 16 | 106 | 0.0 | 0.0 | 0.00 | 0.00 | 0.00 | 52 | 1007.5 |
| 20260504045403 | 16 | 106 | 0.0 | 1.6 | 0.00 | 0.00 | 0.00 | 51 | 1007.5 |
| 20260504044902 | 16 | 106 | 1.6 | 1.6 | 0.00 | 0.00 | 0.00 | 53 | 1007.5 |
| 20260504044402 | 16 | 107 | 1.6 | 1.6 | 0.00 | 0.00 | 0.00 | 53 | 1007.5 |
| 20260504043901 | 16 | 106 | 0.0 | 1.6 | 0.00 | 0.00 | 0.00 | 53 | 1007.8 |
| 20260504043401 | 16 | 105 | 1.6 | 1.6 | 0.00 | 0.00 | 0.00 | 52 | 1007.8 |
| 20260504042900 | 16 | 105 | 0.0 | 1.6 | 0.00 | 0.00 | 0.00 | 52 | 1007.8 |
| 20260504042400 | 16 | 103 | 0.0 | 1.6 | 0.00 | 0.00 | 0.00 | 52 | 1007.8 |
| 20260504041859 | 16 | 103 | 0.0 | 0.0 | 0.00 | 0.00 | 0.00 | 53 | 1007.8 |
| 20260504041358 | 16 | 103 | 0.0 | 0.0 | 0.00 | 0.00 | 0.00 | 56 | 1008.1 |
| 20260504040857 | 17 | 103 | 0.0 | 0.0 | 0.00 | 0.00 | 0.00 | 57 | 1008.1 |
| 20260504040357 | 17 | 103 | 0.0 | 0.0 | 0.00 | 0.00 | 0.00 | 58 | 1008.1 |
| 20260504035856 | 17 | 103 | 0.0 | 0.0 | 0.00 | 0.00 | 0.00 | 53 | 1008.1 |
| 20260504035355 | 17 | 104 | 0.0 | 1.6 | 0.00 | 0.00 | 0.00 | 49 | 1007.8 |
| 20260504034823 | 17 | 103 | 1.6 | 1.6 | 0.00 | 0.00 | 0.00 | 49 | 1007.8 |
| 20260504034323 | 18 | 106 | 0.0 | 0.0 | 0.00 | 0.00 | 0.00 | 48 | 1007.8 |
| 20260504033822 | 18 | 106 | 0.0 | 1.6 | 0.00 | 0.00 | 0.00 | 45 | 1007.8 |
| 20260504033250 | 18 | 105 | 0.0 | 1.6 | 0.00 | 0.00 | 0.00 | 44 | 1007.8 |
| 20260504032750 | 18 | 103 | 0.0 | 1.6 | 0.00 | 0.00 | 0.00 | 48 | 1007.8 |
| 20260504032249 | 18 | 103 | 0.0 | 1.6 | 0.00 | 0.00 | 0.00 | 46 | 1008.1 |
| 20260504031749 | 18 | 103 | 1.6 | 1.6 | 0.00 | 0.00 | 0.00 | 45 | 1007.8 |
| 20260504031248 | 18 | 108 | 1.6 | 4.8 | 0.00 | 0.00 | 0.00 | 46 | 1007.8 |
| 20260504030747 | 18 | 46 | 0.0 | 4.8 | 0.00 | 0.00 | 0.00 | 43 | 1007.8 |
| 20260504030247 | 18 | 99 | 0.0 | 1.6 | 0.00 | 0.00 | 0.00 | 42 | 1007.5 |
| 20260504025746 | 19 | 97 | 0.0 | 1.6 | 0.00 | 0.00 | 0.00 | 42 | 1007.8 |